Showing default

INTELSAT 34, 40874

Orbit data source: Space-Track

INTELSAT 34, 40874 is a payload satellite owned by Intelsat SA (US) (US) in GEO that was launched on Thu, 20 Aug 2015 UTC via an ARIANE 5ECA launch vehicle from the French Guiana (FRGUI). Payload-class satellites include a variety of spacecraft equipped with specific instruments for various scientific and technological missions. These include communications satellites like Starlink; space stations such as the ISS; scientific satellites like the Hubble; Earth observation satellites from companies like Planet Labs, Umbra, and HawkEye 360; GPS; miniature CubeSats for education and research; and military/defense satellites.

Loading next visibility...
Identifier
40874, 2015-039A
Orbit
GEO
Country
Flag of USUS / ITSO
Related business
Manufacturer
SS/Loral (MDA)
Mission
Operational Commercial Communications
Bus & Motor
LS-1300, R-4D
Mass
3,300 kg wet, ~1,800 kg dry
Launch date (UTC)
2015-08-20 (11 years ago)
Launch vehicle
ARIANE 5ECA
Launch site
French Guiana (FRGUI)
Object type
Payload
Rocket body
Debris
Shape & HBR
Box + 2 Pan, 12.3 m
Radar Cross Section
38.748 m², Large (>1 m²)

Expand to show TLE details & history
Last TLE update: 2 days ago

TLE from 2 days ago
0 INTELSAT 34
1 40874U 15039A   26170.95331588 -.00000291  00000-0  00000-0 0  9992
2 40874   0.0091   6.4511 0001908 313.7582 235.6766  1.00300971 39669
Epoch: 2026-06-19T22:52Z
TLE epoch observation values (Epoch: 2026-06-19T22:52:46.492Z)
Latitude
-0.00587°
Longitude
-55.4882°
Altitude
35,782.409 km
Speed
3.075 km/s
True Right ascension
13h 03m 31s
True Declination
0° 00' 21"
Sunlit
Object was in daylight at epoch
Visualization orbit readout
Latitude
Unknown
Longitude
Unknown
Altitude
Unknown
Speed
Unknown
Apparent Right ascension
Unknown
Apparent Declination
Unknown
Sunlit
N/A
Visualization observer readout
Local Sidereal Time
21:39:19
Azimuth
Unknown
Elevation
Unknown
Doppler factor
Unknown
Orbital elements
Apogee altitude
35,787.529 km
Perigee altitude
35,771.442 km
Semi-major axis
42,157.623 km
Eccentricity
0.00019
Inclination
0.0091°
RAAN
6.4511°
Arg. of periapsis
313.7582°
True anomaly
235.65855°
Mean anomaly
235.6766°
Eccentric anomaly
235.66757°
Mean motion
0.25074 °/min
Orbital period
1,435.73 mins
BSTAR
0
Loading maneuver chart data...
Computing Atmospheric mass density...
Loading historical data...
Loading historical data...
Loading historical data...
Loading historical data...
Loading historical data...
Loading historical data...
Loading historical data...
Other satellites on launch #39 in the year 2015 (2015-08-20 UTC)

Documentation

Showing up to 5 results
|